[[{"header":{"parameterUnit":"m.s-1","parameterCategory":2,"la1":30.2991,"la2":30.254,"lo1":-89.0895,"lo2":-89.0444,"dy":0.0017,"dx":0.0017,"nx":28,"ny":28,"refTime":"2024-12-13T09:00:00:Z","depth":"0","parameterNumber":2,"parameterNumberName":"U-component_of_CURRENTS"},"data":[0,0,0,0,0,0,0,0,0,0,0,0,0,0,0,0,0,0,0,0,0,0,0,0,0,0,0,0,0,0,0,0,0,0,0,0,0,0,0,0,0,0,0,0,0,0,0,0,0,0,0,0,0,0,0,0,0,0,-0.251,-0.251,0,-0.2514,-0.2514,-0.2514,-0.2476,-0.2475,-0.2474,-0.2473,-0.2416,-0.2416,-0.2415,0,0,0,0,0,0,0,0,0,0,0,0,0,-0.2459,-0.2459,-0.251,-0.251,-0.251,-0.2515,-0.2514,-0.2514,-0.2476,-0.2475,-0.2474,-0.2473,-0.2417,-0.2416,-0.2415,0,0,0,0,0,0,0,0,0,0,0,0,0,-0.2471,-0.246,-0.2509,-0.2494,-0.2492,-0.2515,-0.2514,-0.2514,-0.2476,-0.2475,-0.2474,-0.2472,-0.2417,-0.2416,-0.2415,-0.2433,0,0,-0.2411,-0.2411,0,0,0,0,0,0,0,0,-0.2471,-0.2473,-0.2496,-0.2495,-0.2493,-0.2496,-0.2476,-0.2485,-0.2476,-0.2479,-0.2473,-0.2472,-0.244,-0.2437,-0.2438,-0.243,-0.2428,-0.2411,-0.2411,-0.241,-0.241,0,0,0,0,0,0,0,-0.247,-0.2472,-0.2509,-0.2496,-0.2495,-0.2484,-0.2484,-0.2477,-0.2463,-0.2479,-0.2477,-0.2482,-0.2438,-0.2439,-0.2436,-0.2427,-0.2411,-0.241,-0.241,-0.2409,-0.2422,-0.2423,0,0,0,0,0,0,-0.2477,-0.2472,-0.2509,-0.2509,-0.2482,-0.2486,-0.2486,-0.2494,-0.2465,-0.246,-0.2483,-0.248,-0.2441,-0.2437,-0.2434,-0.2451,-0.241,-0.2409,-0.2409,-0.2421,-0.2422,-0.2423,0,0,0,0,0,0,-0.2476,-0.248,-0.2508,-0.2492,-0.2495,-0.2488,-0.2498,-0.2495,-0.2491,-0.2469,-0.2463,-0.2482,-0.244,-0.2435,-0.243,-0.2449,-0.2409,-0.2408,-0.242,-0.2421,-0.2423,-0.2488,0,0,0,0,0,0,-0.2474,-0.248,-0.2483,-0.2493,-0.2497,-0.2527,-0.2499,-0.2496,-0.2498,-0.2494,-0.2466,-0.246,-0.2439,-0.2432,-0.2429,-0.2446,-0.2407,-0.2419,-0.2421,-0.2422,-0.2485,-0.2491,-0.2497,0,0,0,0,0,-0.2472,-0.2487,-0.2483,-0.2488,-0.2503,-0.2529,-0.2529,-0.2517,-0.2499,-0.2507,-0.2485,-0.246,-0.2442,-0.2432,-0.2429,-0.2446,-0.2418,-0.242,-0.2422,-0.2482,-0.249,-0.2497,0,0,0,0,0,0,-0.2463,-0.2485,-0.2481,-0.25,-0.2515,-0.2523,-0.2527,-0.2522,-0.2513,-0.2502,-0.2474,-0.2467,-0.247,-0.2451,-0.2441,-0.2455,-0.2426,-0.2427,-0.2472,-0.248,-0.2486,-0.249,-0.2406,0,0,0,0,0,-0.2465,-0.2479,-0.2501,-0.2513,-0.2523,-0.2525,-0.2531,-0.2529,-0.2526,-0.252,-0.2503,-0.2485,-0.248,-0.2473,-0.2464,-0.2473,-0.2447,-0.2481,-0.2488,-0.2494,-0.2495,-0.248,-0.2485,-0.2431,-0.2431,-0.2431,0,0,-0.2461,-0.2477,-0.2482,-0.2511,-0.2517,-0.2545,-0.2525,-0.2541,-0.2558,-0.2516,-0.2523,-0.2507,-0.2487,-0.2497,-0.2497,-0.2481,-0.2496,-0.2496,-0.2501,-0.2499,-0.2483,-0.2488,-0.2492,-0.2432,-0.2432,-0.2432,0,0,-0.2471,-0.2479,-0.2499,-0.2521,-0.2544,-0.2554,-0.2562,-0.2576,-0.2575,-0.2588,-0.2562,-0.2557,-0.2547,-0.254,-0.2535,-0.2572,-0.2531,-0.2569,-0.2604,-0.2591,-0.2595,-0.2598,-0.2571,-0.2572,-0.2572,-0.2572,-0.2572,0,-0.2464,-0.2493,-0.2507,-0.2539,-0.2557,-0.2562,-0.2591,-0.2603,-0.2611,-0.2613,-0.2595,-0.2585,-0.2569,-0.2582,-0.2596,-0.2587,-0.2566,-0.2577,-0.2599,-0.2602,-0.2604,-0.2575,-0.2575,-0.2576,-0.2575,-0.2575,-0.2575,0,-0.2495,-0.2519,-0.2535,-0.2576,-0.26,-0.2625,-0.2653,-0.2668,-0.2663,-0.2668,-0.2674,-0.2655,-0.2643,-0.2646,-0.2633,-0.2648,-0.2623,-0.2609,-0.2579,-0.2613,-0.2581,-0.2579,-0.2581,-0.2579,-0.2578,-0.2577,0,0,-0.2463,-0.2541,-0.2542,-0.2566,-0.262,-0.2639,-0.2682,-0.2714,-0.2725,-0.2731,-0.274,-0.2742,-0.2721,-0.2713,-0.2696,-0.2691,-0.2692,-0.2662,-0.2659,-0.2634,-0.2651,-0.257,-0.256,-0.2681,-0.2681,-0.2681,-0.2621,0,-0.2474,-0.2535,-0.2575,-0.2623,-0.2654,-0.2688,-0.2724,-0.2754,-0.2764,-0.2776,-0.2767,-0.2765,-0.2751,-0.2738,-0.2737,-0.2703,-0.2691,-0.2708,-0.2621,-0.2619,-0.2542,-0.2557,-0.2459,-0.2392,-0.2619,-0.2619,-0.2618,0,-0.248,-0.2521,-0.2574,-0.2642,-0.2658,-0.2689,-0.2732,-0.2767,-0.2799,-0.2806,-0.2812,-0.2799,-0.2801,-0.2775,-0.2739,-0.275,-0.2707,-0.2678,-0.2674,-0.2574,-0.2535,-0.2394,-0.238,-0.2363,-0.2615,-0.2616,-0.2616,0,-0.2429,-0.2513,-0.255,-0.2575,-0.2658,-0.2679,-0.2716,-0.2762,-0.2783,-0.2816,-0.282,-0.2825,-0.2807,-0.2778,-0.2722,-0.273,-0.2665,-0.2664,-0.255,-0.2544,-0.2429,-0.2411,-0.2384,-0.263,-0.263,-0.263,-0.2631,0,-0.2415,-0.2439,-0.2527,-0.2542,-0.2575,-0.2647,-0.2676,-0.2716,-0.2765,-0.2779,-0.2818,-0.2814,-0.2806,-0.2769,-0.2727,-0.2625,-0.2664,-0.2552,-0.2523,-0.2448,-0.2434,-0.2387,-0.2403,-0.2628,-0.2629,-0.2629,-0.2629,0,-0.2341,-0.2406,-0.2446,-0.2529,-0.255,-0.2566,-0.2642,-0.266,-0.2724,-0.2742,-0.2751,-0.2794,-0.2748,-0.2717,-0.2657,-0.2606,-0.248,-0.2483,-0.2389,-0.235,-0.2228,-0.2251,-0.2166,-0.2108,-0.2354,-0.2351,-0.2349,0,-0.2307,-0.2322,-0.2404,-0.2414,-0.2445,-0.2488,-0.2513,-0.2611,-0.2636,-0.2715,-0.271,-0.2702,-0.2651,-0.2546,-0.2472,-0.2369,-0.2368,-0.2225,-0.2224,-0.2202,-0.2208,-0.2222,-0.2181,-0.21,-0.2096,-0.2093,-0.209,0,-0.2221,-0.225,-0.2275,-0.2306,-0.2333,-0.2371,-0.2421,-0.2443,-0.2549,-0.2568,-0.2572,-0.254,-0.247,-0.2328,-0.2223,-0.2159,-0.2169,-0.2155,-0.2159,-0.2025,-0.2012,-0.1947,-0.2162,-0.2062,-0.2065,-0.2067,-0.2068,-0.207,-0.2128,-0.2122,-0.2154,-0.2168,-0.2202,-0.222,-0.2206,-0.2273,-0.2289,-0.2289,-0.2369,-0.2284,-0.2219,-0.2054,-0.1995,-0.1883,-0.1944,-0.1833,-0.1867,-0.1888,-0.1817,-0.1962,-0.1816,-0.1818,-0.1819,-0.182,-0.1821,0,-0.1997,-0.2002,-0.2013,-0.2026,-0.2005,-0.2074,-0.2108,-0.2067,-0.2032,-0.2067,-0.2033,-0.1963,-0.183,-0.1798,-0.1701,-0.1625,-0.1602,-0.1601,-0.1616,-0.1591,-0.1729,-0.1703,-0.1494,-0.1494,-0.1494,-0.1494,-0.1494,-0.1494,-0.1927,-0.1882,-0.1893,-0.1813,-0.1819,-0.1748,-0.1734,-0.1696,-0.1691,-0.1608,-0.1588,-0.1613,-0.1612,-0.1685,-0.1582,-0.1513,-0.149,-0.1436,-0.1473,-0.1603,-0.1628,-0.1653,-0.1633,-0.1412,-0.1412,-0.1276,-0.1276,-0.1275]},{"header":{"parameterUnit":"m.s-1","parameterCategory":2,"la1":30.2991,"la2":30.254,"lo1":-89.0895,"lo2":-89.0444,"dy":0.0017,"dx":0.0017,"nx":28,"ny":28,"refTime":"2024-12-13T09:00:00:Z","depth":"0","parameterNumber":3,"parameterNumberName":"V-component_of_CURRENTS"},"data":[0,0,0,0,0,0,0,0,0,0,0,0,0,0,0,0,0,0,0,0,0,0,0,0,0,0,0,0,0,0,0,0,0,0,0,0,0,0,0,0,0,0,0,0,0,0,0,0,0,0,0,0,0,0,0,0,0,0,-0.029,-0.0289,0,-0.0212,-0.0211,-0.021,-0.0158,-0.0158,-0.0158,-0.0157,-0.0055,-0.0052,-0.005,0,0,0,0,0,0,0,0,0,0,0,0,0,-0.0343,-0.0342,-0.029,-0.0289,-0.0288,-0.0212,-0.0211,-0.021,-0.0158,-0.0158,-0.0158,-0.0157,-0.0055,-0.0052,-0.0049,0,0,0,0,0,0,0,0,0,0,0,0,0,-0.0297,-0.0342,-0.029,-0.0254,-0.025,-0.0213,-0.0211,-0.021,-0.0158,-0.0158,-0.0157,-0.0157,-0.0056,-0.0053,-0.0049,-0.0035,0,0,-0.0038,-0.0036,0,0,0,0,0,0,0,0,-0.03,-0.0296,-0.026,-0.0256,-0.0252,-0.0195,-0.0192,-0.015,-0.0158,-0.0192,-0.0157,-0.0157,-0.01,-0.0093,-0.0078,-0.003,-0.0026,-0.0037,-0.0035,-0.0034,-0.0033,0,0,0,0,0,0,0,-0.0303,-0.0298,-0.0259,-0.0259,-0.0254,-0.0224,-0.0217,-0.0184,-0.0149,-0.0189,-0.0186,-0.0178,-0.0097,-0.0082,-0.0075,-0.0024,-0.0038,-0.0034,-0.0032,-0.0031,0.0057,0.0057,0,0,0,0,0,0,-0.0318,-0.0302,-0.0261,-0.0256,-0.0276,-0.0224,-0.0216,-0.0213,-0.0149,-0.014,-0.0179,-0.0176,-0.0089,-0.008,-0.0072,-0.0047,-0.0034,-0.003,-0.0028,0.0057,0.0057,0.0057,0,0,0,0,0,0,-0.0319,-0.0315,-0.0264,-0.0277,-0.0269,-0.0224,-0.022,-0.0212,-0.0197,-0.0142,-0.0131,-0.0172,-0.0088,-0.0077,-0.0041,-0.0042,-0.0028,-0.0025,0.0056,0.0057,0.0057,0.0001,0,0,0,0,0,0,-0.0321,-0.0316,-0.0321,-0.0279,-0.0269,-0.025,-0.0221,-0.0211,-0.0193,-0.0189,-0.0133,-0.0123,-0.0087,-0.0047,-0.0038,-0.0037,-0.0022,0.0056,0.0057,0.0057,0.0002,-0.0001,-0.0004,0,0,0,0,0,-0.0323,-0.0335,-0.0322,-0.0317,-0.0276,-0.025,-0.0243,-0.0208,-0.0193,-0.0191,-0.015,-0.0124,-0.0039,-0.0044,-0.0033,-0.0031,0.0056,0.0057,0.0057,0.0004,-0.0,-0.0004,0,0,0,0,0,0,-0.0361,-0.033,-0.0314,-0.0316,-0.0288,-0.0242,-0.0239,-0.0214,-0.0179,-0.0176,-0.0122,-0.011,-0.0079,-0.0048,-0.0055,-0.0005,0.0013,0.0015,-0.0031,-0.0035,-0.0038,-0.0054,-0.0019,0,0,0,0,0,-0.0372,-0.0373,-0.0335,-0.0336,-0.0326,-0.0283,-0.0269,-0.0246,-0.0209,-0.0193,-0.0152,-0.0108,-0.007,-0.0048,-0.0011,0.0015,0.0055,0.0024,0.0021,0.0018,0.0013,0.0074,0.0075,0.0058,0.0058,0.0058,0,0,-0.0387,-0.0371,-0.0371,-0.0344,-0.032,-0.0313,-0.0274,-0.0259,-0.0246,-0.0188,-0.0162,-0.0121,-0.0066,-0.0036,-0.0019,-0.0009,0.0045,0.0018,0.0015,0.0012,0.0074,0.0076,0.0077,0.0058,0.0058,0.0058,0,0,-0.0424,-0.0404,-0.0418,-0.0398,-0.037,-0.034,-0.0339,-0.0295,-0.0271,-0.0241,-0.0195,-0.0153,-0.0099,-0.0055,-0.0027,-0.0026,0.0023,-0.0017,-0.0042,0.0016,0.0018,0.002,0.0074,0.0081,-0.0015,-0.0015,-0.0015,0,-0.0445,-0.0454,-0.0418,-0.0424,-0.0412,-0.0357,-0.0365,-0.0331,-0.028,-0.0256,-0.0242,-0.0149,-0.0106,-0.0056,-0.0057,-0.0034,0.0005,-0.0034,0.0012,0.0015,0.0018,0.0072,0.0081,-0.0018,-0.0018,-0.0018,-0.0017,0,-0.0489,-0.0493,-0.05,-0.0487,-0.0468,-0.0466,-0.0416,-0.0391,-0.0354,-0.0311,-0.0257,-0.0194,-0.0136,-0.0117,-0.0088,-0.0044,-0.0022,-0.0003,0.0018,0.0016,0.0074,0.0084,-0.0022,-0.0021,-0.002,-0.0019,0,0,-0.0542,-0.0535,-0.0536,-0.0541,-0.0502,-0.0492,-0.0467,-0.0423,-0.0399,-0.0343,-0.0305,-0.0238,-0.0195,-0.0161,-0.0111,-0.0063,-0.0009,-0.0032,-0.0028,0.0014,0.0119,0.0166,0.0182,0.0018,0.0019,0.002,0.015,0,-0.0587,-0.0623,-0.0596,-0.0613,-0.0624,-0.0562,-0.0542,-0.049,-0.0432,-0.0379,-0.0299,-0.0248,-0.0212,-0.0185,-0.013,-0.0034,0.0015,-0.0046,0.012,0.0125,0.0162,0.0195,0.0228,0.0349,0.016,0.0162,0.0163,0,-0.0638,-0.0654,-0.069,-0.0676,-0.0673,-0.0668,-0.0615,-0.0587,-0.0492,-0.0444,-0.0371,-0.0301,-0.0215,-0.0191,-0.0031,-0.0072,0.0011,0.0082,0.0089,0.0159,0.0192,0.0323,0.0376,0.0491,0.0179,0.0178,0.0177,0,-0.07,-0.0714,-0.0747,-0.0744,-0.072,-0.0714,-0.0691,-0.0611,-0.0578,-0.0483,-0.0444,-0.0327,-0.0259,-0.0146,0.0007,-0.0012,0.0187,0.0186,0.0306,0.0311,0.0386,0.0394,0.0566,0.0288,0.0288,0.0288,0.0287,0,-0.076,-0.0782,-0.0782,-0.08,-0.0823,-0.0778,-0.077,-0.0721,-0.0643,-0.0591,-0.0487,-0.0412,-0.0245,-0.0106,0.001,0.0205,0.0198,0.0312,0.0353,0.0367,0.0372,0.0513,0.0544,0.0292,0.0291,0.029,0.029,0,-0.0822,-0.0824,-0.0861,-0.0858,-0.0858,-0.0873,-0.0836,-0.0818,-0.0738,-0.0666,-0.0639,-0.046,-0.0265,-0.0093,0.0123,0.0223,0.0472,0.0454,0.0458,0.0497,0.0697,0.0722,0.0927,0.0995,0.0603,0.0605,0.0607,0,-0.0857,-0.0888,-0.0917,-0.0941,-0.0944,-0.0953,-0.095,-0.0879,-0.0845,-0.0681,-0.0646,-0.0442,-0.0267,0.0069,0.0283,0.0514,0.0585,0.0661,0.0629,0.0729,0.0788,0.0799,0.0842,0.071,0.0712,0.0714,0.0716,0,-0.0918,-0.0929,-0.0959,-0.1019,-0.1038,-0.1047,-0.1033,-0.1017,-0.0903,-0.0805,-0.0621,-0.0463,-0.0123,0.0184,0.0473,0.0604,0.0749,0.0708,0.0823,0.0898,0.0913,0.0991,0.0595,0.0733,0.0731,0.073,0.0729,0.0728,-0.095,-0.0992,-0.1035,-0.1085,-0.1111,-0.1119,-0.111,-0.105,-0.0962,-0.0772,-0.0613,-0.0324,0.0079,0.0511,0.0658,0.0962,0.0912,0.1042,0.1068,0.1075,0.1132,0.0769,0.0942,0.0941,0.0941,0.094,0.094,0,-0.0984,-0.103,-0.1092,-0.1143,-0.1176,-0.1171,-0.1141,-0.1082,-0.0953,-0.0742,-0.0522,-0.001,0.0387,0.0733,0.1151,0.1309,0.1327,0.1386,0.1412,0.1441,0.1146,0.1141,0.1351,0.1351,0.1351,0.1351,0.1351,0.1351,-0.1001,-0.107,-0.1107,-0.1176,-0.1207,-0.1206,-0.1177,-0.1049,-0.0888,-0.0524,-0.0201,0.0062,0.0557,0.1218,0.1601,0.1633,0.1748,0.1742,0.1802,0.1593,0.1562,0.1533,0.1538,0.1828,0.1828,0.2091,0.2094,0.2096]}],[{"header":{"parameterUnit":"m.s-1","parameterCategory":2,"la1":30.2991,"la2":30.254,"lo1":-89.0895,"lo2":-89.0444,"dy":0.0017,"dx":0.0017,"nx":28,"ny":28,"refTime":"2024-12-13T09:00:00:Z","depth":"2","parameterNumber":2,"parameterNumberName":"U-component_of_CURRENTS"},"data":[0,0,0,0,0,0,0,0,0,0,0,0,0,0,0,0,0,0,0,0,0,0,0,0,0,0,0,0,0,0,0,0,0,0,0,0,0,0,0,0,0,0,0,0,0,0,0,0,0,0,0,0,0,0,0,0,0,0,-0.2182,-0.2182,0,-0.2193,-0.2193,-0.2193,-0.2167,-0.2166,-0.2166,-0.2165,-0.2126,-0.2125,-0.2125,0,0,0,0,0,0,0,0,0,0,0,0,0,-0.2132,-0.2133,-0.2182,-0.2182,-0.2182,-0.2193,-0.2193,-0.2192,-0.2167,-0.2166,-0.2166,-0.2165,-0.2126,-0.2125,-0.2125,0,0,0,0,0,0,0,0,0,0,0,0,0,-0.2147,-0.2133,-0.2182,-0.2173,-0.2172,-0.2193,-0.2193,-0.2192,-0.2167,-0.2166,-0.2166,-0.2165,-0.2126,-0.2126,-0.2125,-0.2138,0,0,-0.2122,-0.2122,0,0,0,0,0,0,0,0,-0.2146,-0.2149,-0.2174,-0.2174,-0.2173,-0.218,-0.2161,-0.2172,-0.2168,-0.2167,-0.2165,-0.2164,-0.2141,-0.2139,-0.2141,-0.2136,-0.2134,-0.2122,-0.2122,-0.2122,-0.2121,0,0,0,0,0,0,0,-0.2145,-0.2148,-0.2184,-0.2174,-0.2174,-0.2166,-0.2167,-0.2163,-0.2156,-0.2167,-0.2165,-0.2171,-0.214,-0.2141,-0.2139,-0.2134,-0.2122,-0.2122,-0.2121,-0.2121,-0.214,-0.2141,0,0,0,0,0,0,-0.2151,-0.2147,-0.2183,-0.2184,-0.216,-0.2168,-0.2169,-0.2176,-0.2157,-0.2154,-0.2172,-0.217,-0.2143,-0.214,-0.2138,-0.2162,-0.2122,-0.2121,-0.212,-0.2139,-0.214,-0.2141,0,0,0,0,0,0,-0.2149,-0.2154,-0.2183,-0.2168,-0.2171,-0.217,-0.2179,-0.2177,-0.2179,-0.2162,-0.2157,-0.2175,-0.2142,-0.2139,-0.214,-0.2159,-0.2121,-0.212,-0.2138,-0.2139,-0.2141,-0.2203,0,0,0,0,0,0,-0.2148,-0.2153,-0.2158,-0.2168,-0.2172,-0.2202,-0.218,-0.2178,-0.2185,-0.2183,-0.2164,-0.2159,-0.2141,-0.2142,-0.2139,-0.2158,-0.2119,-0.2137,-0.2139,-0.214,-0.2199,-0.2206,-0.2212,0,0,0,0,0,-0.2146,-0.216,-0.2158,-0.2163,-0.218,-0.2203,-0.2205,-0.2199,-0.2186,-0.2195,-0.2181,-0.216,-0.2151,-0.2142,-0.2139,-0.2157,-0.2136,-0.2138,-0.214,-0.2197,-0.2205,-0.2212,0,0,0,0,0,0,-0.2138,-0.2159,-0.2157,-0.2175,-0.2191,-0.22,-0.2207,-0.2205,-0.2202,-0.2196,-0.2173,-0.2168,-0.2176,-0.216,-0.215,-0.2168,-0.214,-0.2142,-0.2184,-0.2191,-0.2197,-0.22,-0.2119,0,0,0,0,0,-0.2141,-0.2154,-0.2175,-0.2187,-0.2198,-0.2203,-0.221,-0.2212,-0.2213,-0.2211,-0.2199,-0.2187,-0.2185,-0.2182,-0.2175,-0.2187,-0.2163,-0.2197,-0.2203,-0.2208,-0.2209,-0.2195,-0.22,-0.2148,-0.2148,-0.2148,0,0,-0.2139,-0.2153,-0.2159,-0.2186,-0.2194,-0.222,-0.2205,-0.2224,-0.2241,-0.2207,-0.222,-0.2209,-0.2193,-0.2205,-0.2207,-0.2193,-0.221,-0.2211,-0.2216,-0.2213,-0.2197,-0.2202,-0.2207,-0.215,-0.215,-0.2149,0,0,-0.2149,-0.2158,-0.2176,-0.2197,-0.2221,-0.2231,-0.2241,-0.2258,-0.226,-0.2277,-0.2257,-0.2257,-0.2253,-0.2248,-0.2244,-0.2281,-0.2244,-0.228,-0.2313,-0.23,-0.2304,-0.2307,-0.2284,-0.2284,-0.2283,-0.2283,-0.2283,0,-0.2145,-0.2171,-0.2185,-0.2213,-0.2231,-0.224,-0.2268,-0.2281,-0.2295,-0.23,-0.2287,-0.2285,-0.2274,-0.2287,-0.2302,-0.2295,-0.2276,-0.2287,-0.2308,-0.2311,-0.2313,-0.2287,-0.2287,-0.2286,-0.2286,-0.2286,-0.2285,0,-0.2171,-0.2195,-0.221,-0.2247,-0.2271,-0.2296,-0.2324,-0.2342,-0.2344,-0.2351,-0.2363,-0.235,-0.2345,-0.2348,-0.2338,-0.2354,-0.2332,-0.2318,-0.2289,-0.2321,-0.2293,-0.2291,-0.2291,-0.229,-0.2289,-0.2288,0,0,-0.2145,-0.2215,-0.2216,-0.2239,-0.2291,-0.2309,-0.2352,-0.2384,-0.2399,-0.2411,-0.2424,-0.243,-0.2416,-0.241,-0.2397,-0.2392,-0.2396,-0.2368,-0.2365,-0.2343,-0.2359,-0.2284,-0.2275,-0.2385,-0.2385,-0.2386,-0.2333,0,-0.2156,-0.221,-0.2246,-0.2291,-0.232,-0.2354,-0.239,-0.2421,-0.2437,-0.2454,-0.245,-0.2454,-0.2442,-0.2437,-0.2436,-0.2405,-0.2395,-0.2411,-0.2331,-0.2328,-0.2257,-0.2272,-0.2114,-0.2048,-0.2331,-0.2331,-0.2331,0,-0.2161,-0.2197,-0.2247,-0.2309,-0.2325,-0.2356,-0.2402,-0.2436,-0.2473,-0.2485,-0.2496,-0.2489,-0.2494,-0.2472,-0.2439,-0.2449,-0.2412,-0.2384,-0.2381,-0.2287,-0.225,-0.2061,-0.2035,-0.2328,-0.2328,-0.2328,-0.2328,0,-0.2117,-0.2192,-0.2227,-0.225,-0.2327,-0.2351,-0.2388,-0.2436,-0.2459,-0.2498,-0.2507,-0.2515,-0.2503,-0.2476,-0.2427,-0.2434,-0.2375,-0.2372,-0.2267,-0.2261,-0.2097,-0.2076,-0.2341,-0.2341,-0.2341,-0.2341,-0.2341,0,-0.2103,-0.2126,-0.2208,-0.2223,-0.2257,-0.2325,-0.2358,-0.2398,-0.2451,-0.2466,-0.2509,-0.2506,-0.2503,-0.2471,-0.2432,-0.2338,-0.2375,-0.2269,-0.2242,-0.2114,-0.2096,-0.2315,-0.2313,-0.2339,-0.2339,-0.234,-0.234,0,-0.2038,-0.2097,-0.2134,-0.2214,-0.2235,-0.2254,-0.233,-0.2349,-0.2416,-0.2437,-0.2448,-0.2491,-0.245,-0.2427,-0.2371,-0.2322,-0.2254,-0.2209,-0.2056,-0.2012,-0.215,-0.2151,-0.2093,-0.209,-0.2087,-0.2085,-0.2083,0,-0.2007,-0.2021,-0.2099,-0.2109,-0.214,-0.2186,-0.2211,-0.2307,-0.233,-0.2409,-0.2402,-0.2403,-0.2353,-0.226,-0.2188,-0.2095,-0.2164,-0.1901,-0.1887,-0.2145,-0.2124,-0.213,-0.2135,-0.1694,-0.169,-0.1686,-0.1682,0,-0.1929,-0.1958,-0.198,-0.2011,-0.2038,-0.2073,-0.2121,-0.2137,-0.2239,-0.2258,-0.2258,-0.223,-0.2171,-0.2005,-0.1916,-0.1848,-0.191,-0.1816,-0.2109,-0.1789,-0.1766,-0.1748,-0.1766,-0.1647,-0.165,-0.1653,-0.1655,-0.1656,-0.1846,-0.184,-0.187,-0.1883,-0.1915,-0.1923,-0.1901,-0.1959,-0.1968,-0.1957,-0.2041,-0.1939,-0.1926,-0.1693,-0.1604,-0.1547,-0.1677,-0.1598,-0.1611,-0.1629,-0.1599,-0.1574,-0.1412,-0.1414,-0.1416,-0.1418,-0.1419,0,-0.1726,-0.1728,-0.1736,-0.1743,-0.1717,-0.1788,-0.1802,-0.1745,-0.1693,-0.1723,-0.1686,-0.1489,-0.1389,-0.1383,-0.1242,-0.1217,-0.1217,-0.1164,-0.1166,-0.1201,-0.1232,-0.1184,-0.0886,-0.0885,-0.0883,-0.0882,0,0,-0.1661,-0.1614,-0.1619,-0.1531,-0.1534,-0.1451,-0.1423,-0.1362,-0.1341,-0.1234,-0.1188,-0.1285,-0.1324,-0.1096,-0.1054,-0.0945,-0.1061,-0.0897,-0.1324,-0.1359,-0.1389,-0.148,-0.1445,0,0,0,0,0]},{"header":{"parameterUnit":"m.s-1","parameterCategory":2,"la1":30.2991,"la2":30.254,"lo1":-89.0895,"lo2":-89.0444,"dy":0.0017,"dx":0.0017,"nx":28,"ny":28,"refTime":"2024-12-13T09:00:00:Z","depth":"2","parameterNumber":3,"parameterNumberName":"V-component_of_CURRENTS"},"data":[0,0,0,0,0,0,0,0,0,0,0,0,0,0,0,0,0,0,0,0,0,0,0,0,0,0,0,0,0,0,0,0,0,0,0,0,0,0,0,0,0,0,0,0,0,0,0,0,0,0,0,0,0,0,0,0,0,0,-0.0288,-0.0287,0,-0.0218,-0.0217,-0.0216,-0.0171,-0.0171,-0.0171,-0.017,-0.0078,-0.0076,-0.0074,0,0,0,0,0,0,0,0,0,0,0,0,0,-0.0334,-0.0334,-0.0288,-0.0287,-0.0286,-0.0218,-0.0217,-0.0216,-0.0171,-0.0171,-0.017,-0.017,-0.0079,-0.0076,-0.0074,0,0,0,0,0,0,0,0,0,0,0,0,0,-0.0294,-0.0334,-0.0288,-0.0256,-0.0253,-0.0218,-0.0217,-0.0216,-0.0171,-0.0171,-0.017,-0.017,-0.008,-0.0076,-0.0073,-0.0059,0,0,-0.0063,-0.0061,0,0,0,0,0,0,0,0,-0.0296,-0.0292,-0.0262,-0.0258,-0.0254,-0.0203,-0.02,-0.0162,-0.0171,-0.0201,-0.017,-0.017,-0.0119,-0.0112,-0.0099,-0.0055,-0.0051,-0.0063,-0.006,-0.0059,-0.0058,0,0,0,0,0,0,0,-0.0299,-0.0294,-0.026,-0.0261,-0.0256,-0.0229,-0.0223,-0.0192,-0.0162,-0.0199,-0.0195,-0.0189,-0.0116,-0.0102,-0.0096,-0.0049,-0.0063,-0.006,-0.0058,-0.0056,0.0025,0.0025,0,0,0,0,0,0,-0.0312,-0.0297,-0.0262,-0.0258,-0.0276,-0.0228,-0.0222,-0.022,-0.0162,-0.0154,-0.0189,-0.0187,-0.0108,-0.01,-0.0093,-0.0068,-0.0059,-0.0056,-0.0054,0.0025,0.0025,0.0025,0,0,0,0,0,0,-0.0313,-0.031,-0.0265,-0.0276,-0.0268,-0.0228,-0.0226,-0.0218,-0.0205,-0.0156,-0.0146,-0.0183,-0.0108,-0.0098,-0.0065,-0.0064,-0.0054,-0.0051,0.0025,0.0025,0.0025,-0.002,0,0,0,0,0,0,-0.0315,-0.0311,-0.0315,-0.0277,-0.0268,-0.0251,-0.0226,-0.0217,-0.0201,-0.0198,-0.0148,-0.0139,-0.0107,-0.007,-0.0062,-0.0059,-0.0049,0.0025,0.0025,0.0025,-0.0019,-0.0022,-0.0024,0,0,0,0,0,-0.0317,-0.0327,-0.0316,-0.0311,-0.0275,-0.0251,-0.0244,-0.0213,-0.0202,-0.0199,-0.0162,-0.014,-0.0062,-0.0067,-0.0057,-0.0054,0.0025,0.0025,0.0025,-0.0018,-0.0021,-0.0024,0,0,0,0,0,0,-0.0349,-0.0322,-0.0309,-0.031,-0.0285,-0.0244,-0.024,-0.0219,-0.0187,-0.0185,-0.0138,-0.0126,-0.0098,-0.0069,-0.0076,-0.0029,-0.0015,-0.0013,-0.0052,-0.0054,-0.0057,-0.007,-0.0046,0,0,0,0,0,-0.0359,-0.036,-0.0326,-0.0327,-0.0318,-0.028,-0.0267,-0.0247,-0.0214,-0.02,-0.0163,-0.0124,-0.0088,-0.0068,-0.0035,-0.0009,0.0026,0.0,-0.0002,-0.0005,-0.0008,0.0047,0.0049,0.0026,0.0026,0.0026,0,0,-0.0372,-0.0358,-0.0358,-0.0334,-0.0313,-0.0305,-0.0272,-0.0258,-0.0246,-0.0195,-0.017,-0.0133,-0.0084,-0.0055,-0.0039,-0.0031,0.002,-0.0004,-0.0007,-0.0009,0.0047,0.0049,0.0051,0.0027,0.0027,0.0027,0,0,-0.0403,-0.0386,-0.0398,-0.038,-0.0355,-0.0328,-0.0327,-0.0288,-0.0266,-0.0238,-0.0197,-0.0159,-0.0109,-0.0069,-0.0043,-0.0039,0.0002,-0.0032,-0.0051,0.0003,0.0005,0.0007,0.0053,0.006,-0.0029,-0.003,-0.003,0,-0.0421,-0.0429,-0.0397,-0.0402,-0.0391,-0.0343,-0.0349,-0.0318,-0.0272,-0.0251,-0.0238,-0.0153,-0.0114,-0.0066,-0.0066,-0.0045,-0.0012,-0.0045,-0.0001,0.0002,0.0005,0.0052,0.006,-0.0032,-0.0031,-0.0031,-0.0031,0,-0.0458,-0.0462,-0.0467,-0.0456,-0.0438,-0.0436,-0.039,-0.0367,-0.0335,-0.0297,-0.0246,-0.0188,-0.0136,-0.0117,-0.009,-0.0048,-0.0031,-0.0014,0.0004,0.0005,0.0054,0.0063,-0.0035,-0.0034,-0.0033,-0.0033,0,0,-0.0504,-0.0497,-0.0498,-0.0504,-0.0468,-0.0459,-0.0434,-0.0395,-0.0374,-0.032,-0.0287,-0.0221,-0.0184,-0.0153,-0.0108,-0.0061,-0.001,-0.0035,-0.0031,0.0005,0.0103,0.0136,0.015,0.0014,0.0015,0.0016,0.0128,0,-0.0544,-0.0575,-0.0549,-0.0565,-0.0575,-0.052,-0.05,-0.0454,-0.0402,-0.0354,-0.0278,-0.0233,-0.0198,-0.0174,-0.0121,-0.0035,0.0012,-0.0042,0.0102,0.0106,0.0131,0.0161,0.013,0.0229,0.0137,0.0139,0.014,0,-0.0588,-0.0602,-0.0635,-0.0624,-0.0621,-0.0617,-0.0571,-0.0545,-0.0458,-0.0416,-0.0348,-0.0285,-0.0202,-0.0179,-0.0032,-0.0069,0.0007,0.0072,0.0079,0.0131,0.0156,0.0215,0.025,0.0156,0.0155,0.0154,0.0152,0,-0.0646,-0.0658,-0.0689,-0.0686,-0.0665,-0.0661,-0.0641,-0.0569,-0.0541,-0.0454,-0.0419,-0.0311,-0.0251,-0.0143,-0.0004,-0.0018,0.016,0.0163,0.0264,0.0267,0.0281,0.0283,0.0259,0.0259,0.0259,0.0259,0.0258,0,-0.0701,-0.0722,-0.0722,-0.074,-0.0765,-0.0723,-0.072,-0.0676,-0.0606,-0.0567,-0.0462,-0.0399,-0.024,-0.0115,-0.0004,0.0169,0.0167,0.0269,0.0304,0.0265,0.0264,0.0229,0.0224,0.0263,0.0262,0.0261,0.026,0,-0.076,-0.0761,-0.0797,-0.0797,-0.0799,-0.0816,-0.0788,-0.0774,-0.07,-0.0643,-0.0619,-0.0455,-0.0282,-0.0116,0.0081,0.0176,0.0329,0.0386,0.0327,0.0353,0.0396,0.0387,0.0508,0.0511,0.0512,0.0514,0.0515,0,-0.0794,-0.0823,-0.0853,-0.0879,-0.0884,-0.0897,-0.09,-0.0836,-0.081,-0.0669,-0.0643,-0.0461,-0.0312,-0.0004,0.0196,0.041,0.0398,0.0492,0.0462,0.0403,0.0425,0.0413,0.0402,0.0463,0.0463,0.0464,0.0464,0,-0.0853,-0.0865,-0.0896,-0.0958,-0.0981,-0.0997,-0.099,-0.0983,-0.0886,-0.0805,-0.0655,-0.0521,-0.0214,0.0038,0.0311,0.0426,0.0455,0.0512,0.0488,0.04,0.0369,0.0386,0.0376,0.047,0.047,0.0469,0.0469,0.0469,-0.0889,-0.093,-0.0975,-0.1027,-0.1059,-0.1078,-0.1078,-0.1033,-0.0968,-0.0816,-0.0682,-0.0438,-0.0213,0.0201,0.0377,0.0545,0.0542,0.057,0.0565,0.0559,0.053,0.0503,0.0624,0.0625,0.0625,0.0625,0.0625,0,-0.0928,-0.0972,-0.1035,-0.1092,-0.1132,-0.113,-0.1118,-0.1073,-0.0979,-0.0809,-0.063,-0.0336,-0.0052,0.0187,0.0458,0.0606,0.0578,0.0621,0.0548,0.0542,0.0537,0.0503,0.0592,0.0593,0.0593,0.0593,0,0,-0.0948,-0.1017,-0.1053,-0.1133,-0.1169,-0.1182,-0.1166,-0.1066,-0.0932,-0.0738,-0.0543,-0.0312,-0.0021,0.0156,0.0338,0.0476,0.0465,0.0485,0.0496,0.0382,0.0375,0.0497,0.0437,0,0,0,0,0]}],[{"header":{"parameterUnit":"m.s-1","parameterCategory":2,"la1":30.2991,"la2":30.254,"lo1":-89.0895,"lo2":-89.0444,"dy":0.0017,"dx":0.0017,"nx":28,"ny":28,"refTime":"2024-12-13T09:00:00:Z","depth":"4","parameterNumber":2,"parameterNumberName":"U-component_of_CURRENTS"},"data":[0,0,0,0,0,0,0,0,0,0,0,0,0,0,0,0,0,0,0,0,0,0,0,0,0,0,0,0,0,0,0,0,0,0,0,0,0,0,0,0,0,0,0,0,0,0,0,0,0,0,0,0,0,0,0,0,0,0,-0.1526,-0.1527,0,-0.1578,-0.1578,-0.1579,-0.161,-0.1611,-0.1611,-0.1611,-0.1649,-0.165,-0.165,0,0,0,0,0,0,0,0,0,0,0,0,0,-0.145,-0.1452,-0.1526,-0.1527,-0.1527,-0.1578,-0.1579,-0.1579,-0.161,-0.1611,-0.1611,-0.1611,-0.1649,-0.165,-0.165,0,0,0,0,0,0,0,0,0,0,0,0,0,-0.1489,-0.1452,-0.1526,-0.155,-0.1553,-0.1578,-0.1579,-0.1579,-0.161,-0.1611,-0.1611,-0.1611,-0.1648,-0.1649,-0.1651,-0.1649,0,0,-0.1654,-0.1654,0,0,0,0,0,0,0,0,-0.1487,-0.1492,-0.1546,-0.1549,-0.1552,-0.1589,-0.1566,-0.1602,-0.161,-0.1587,-0.1611,-0.1612,-0.1628,-0.1631,-0.1638,-0.165,-0.1652,-0.1654,-0.1655,-0.1655,-0.1655,0,0,0,0,0,0,0,-0.1484,-0.149,-0.1545,-0.1547,-0.155,-0.1558,-0.1564,-0.1573,-0.1603,-0.1589,-0.1592,-0.16,-0.163,-0.1637,-0.1639,-0.1653,-0.1654,-0.1655,-0.1656,-0.1656,-0.1727,-0.1728,0,0,0,0,0,0,-0.1481,-0.1487,-0.1543,-0.1547,-0.1522,-0.1559,-0.1565,-0.1576,-0.1603,-0.1609,-0.1599,-0.1601,-0.1635,-0.1638,-0.1641,-0.1702,-0.1655,-0.1656,-0.1657,-0.1725,-0.1727,-0.1728,0,0,0,0,0,0,-0.1479,-0.1486,-0.1541,-0.1519,-0.1527,-0.156,-0.1571,-0.1576,-0.1609,-0.1612,-0.1617,-0.1629,-0.1635,-0.1639,-0.1673,-0.1702,-0.1657,-0.1658,-0.1724,-0.1726,-0.1727,-0.1786,0,0,0,0,0,0,-0.1477,-0.1485,-0.1502,-0.1519,-0.1528,-0.1574,-0.1571,-0.1577,-0.1613,-0.1616,-0.1639,-0.1641,-0.1636,-0.1672,-0.1675,-0.1702,-0.1659,-0.1722,-0.1725,-0.1727,-0.1783,-0.179,-0.1796,0,0,0,0,0,-0.1474,-0.1494,-0.1503,-0.1511,-0.1548,-0.1576,-0.1582,-0.1604,-0.1614,-0.1634,-0.1651,-0.1642,-0.1688,-0.1674,-0.1677,-0.1706,-0.1721,-0.1724,-0.1727,-0.178,-0.1788,-0.1795,0,0,0,0,0,0,-0.1472,-0.1499,-0.151,-0.1538,-0.1564,-0.1582,-0.1606,-0.162,-0.165,-0.166,-0.1659,-0.1663,-0.1702,-0.1696,-0.1681,-0.1732,-0.1703,-0.1706,-0.1742,-0.175,-0.1756,-0.1753,-0.1659,0,0,0,0,0,-0.1479,-0.1502,-0.1527,-0.1552,-0.1568,-0.1592,-0.1611,-0.1628,-0.165,-0.1665,-0.1681,-0.1697,-0.1711,-0.1726,-0.1736,-0.1766,-0.1744,-0.1786,-0.1793,-0.1798,-0.1797,-0.1789,-0.1794,-0.1737,-0.1737,-0.1737,0,0,-0.1485,-0.1504,-0.1518,-0.1554,-0.1576,-0.1606,-0.1605,-0.1643,-0.1673,-0.1663,-0.1715,-0.1723,-0.1724,-0.1758,-0.1775,-0.1761,-0.1803,-0.1802,-0.1806,-0.1802,-0.1792,-0.1798,-0.1803,-0.1739,-0.1739,-0.1738,0,0,-0.1501,-0.1528,-0.1551,-0.1577,-0.1617,-0.1633,-0.165,-0.1686,-0.171,-0.1753,-0.1753,-0.1779,-0.1808,-0.1813,-0.1817,-0.1865,-0.1837,-0.1875,-0.1908,-0.1901,-0.1905,-0.1909,-0.1887,-0.1888,-0.188,-0.188,-0.188,0,-0.151,-0.154,-0.1563,-0.1593,-0.1619,-0.1649,-0.1681,-0.171,-0.1754,-0.1774,-0.178,-0.1823,-0.183,-0.1858,-0.1879,-0.188,-0.1866,-0.1879,-0.1909,-0.1912,-0.1914,-0.1891,-0.1891,-0.1883,-0.1883,-0.1882,-0.1882,0,-0.1535,-0.1571,-0.159,-0.1636,-0.1668,-0.1703,-0.1741,-0.1781,-0.1813,-0.1833,-0.1879,-0.1889,-0.191,-0.1922,-0.1919,-0.1947,-0.1928,-0.1916,-0.1887,-0.1923,-0.1897,-0.1896,-0.1887,-0.1886,-0.1885,-0.1885,0,0,-0.1516,-0.1592,-0.1601,-0.1631,-0.1695,-0.1719,-0.1777,-0.1826,-0.1859,-0.1902,-0.1938,-0.1971,-0.1976,-0.198,-0.1981,-0.1982,-0.1994,-0.1966,-0.1964,-0.1941,-0.1971,-0.1845,-0.1831,-0.1991,-0.1991,-0.1991,-0.1944,0,-0.1528,-0.1586,-0.1625,-0.1686,-0.1718,-0.177,-0.1817,-0.1867,-0.1907,-0.195,-0.1968,-0.2,-0.1998,-0.2014,-0.2018,-0.2,-0.1996,-0.2007,-0.1942,-0.1939,-0.1819,-0.1827,-0.1992,-0.1943,-0.1943,-0.1943,-0.1943,0,-0.1529,-0.157,-0.1632,-0.1709,-0.1729,-0.1775,-0.1849,-0.1895,-0.1958,-0.1989,-0.2024,-0.2037,-0.2059,-0.2047,-0.2031,-0.2041,-0.2014,-0.1993,-0.199,-0.1849,-0.1811,-0.1899,-0.1941,-0.1941,-0.1941,-0.1942,-0.1942,0,-0.1483,-0.157,-0.1619,-0.1648,-0.174,-0.1784,-0.1836,-0.1908,-0.1944,-0.2013,-0.2037,-0.2065,-0.2075,-0.2058,-0.2025,-0.2034,-0.1987,-0.1987,-0.1844,-0.1835,-0.1938,-0.1934,-0.1966,-0.1966,-0.1966,-0.1966,-0.1966,0,-0.1459,-0.15,-0.1608,-0.1631,-0.169,-0.1768,-0.183,-0.1885,-0.1958,-0.1982,-0.205,-0.2052,-0.2079,-0.2057,-0.2028,-0.1921,-0.1985,-0.184,-0.1811,-0.1964,-0.1964,-0.1937,-0.1934,-0.1964,-0.1965,-0.1965,-0.1966,0,-0.1389,-0.1464,-0.1523,-0.1633,-0.1669,-0.171,-0.1817,-0.1848,-0.1936,-0.1967,-0.1989,-0.2043,-0.2007,-0.2005,-0.1965,-0.1898,-0.1827,-0.1774,-0.1928,-0.191,-0.1682,-0.1683,-0.1607,-0.1602,-0.1598,-0.1594,-0.1592,0,-0.1354,-0.138,-0.1502,-0.1531,-0.1584,-0.1662,-0.1703,-0.1817,-0.184,-0.1931,-0.1918,-0.1937,-0.1949,-0.1776,-0.1807,-0.1728,-0.1708,-0.1665,-0.1684,-0.1664,-0.1644,-0.1652,-0.1659,-0.1585,-0.1584,-0.1583,-0.1582,0,-0.1275,-0.1333,-0.1376,-0.1441,-0.1497,-0.1547,-0.1615,-0.162,-0.1727,-0.1834,-0.1781,-0.1754,-0.1711,-0.1671,-0.1619,-0.157,-0.1693,-0.1622,-0.1631,-0.1647,-0.1636,-0.1623,-0.1634,-0.1567,-0.1569,-0.1571,-0.1571,0,-0.1208,-0.1217,-0.128,-0.1319,-0.1385,-0.139,-0.1454,-0.1468,-0.1508,-0.1617,-0.1592,-0.1616,-0.1678,-0.1587,-0.1541,-0.1481,-0.1462,-0.1414,-0.1433,-0.145,-0.1422,-0.1386,-0.1203,0,0,0,0,0,-0.1129,-0.1118,-0.1147,-0.1178,-0.1239,-0.127,-0.1365,-0.1431,-0.1544,-0.1455,-0.1518,-0.1469,-0.1409,-0.1429,-0.133,-0.1476,-0.1472,-0.1357,-0.1429,-0.1487,-0.1504,-0.1486,0,0,0,0,0,0,-0.1073,-0.1093,-0.1098,-0.1045,-0.1035,-0.1081,-0.1132,-0.1215,-0.1177,-0.1298,-0.1263,-0.1365,-0.132,-0.1419,-0.1288,-0.1296,-0.1307,-0.1392,-0.1387,-0.1478,-0.1493,-0.1506,-0.1494,0,0,0,0,0]},{"header":{"parameterUnit":"m.s-1","parameterCategory":2,"la1":30.2991,"la2":30.254,"lo1":-89.0895,"lo2":-89.0444,"dy":0.0017,"dx":0.0017,"nx":28,"ny":28,"refTime":"2024-12-13T09:00:00:Z","depth":"4","parameterNumber":3,"parameterNumberName":"V-component_of_CURRENTS"},"data":[0,0,0,0,0,0,0,0,0,0,0,0,0,0,0,0,0,0,0,0,0,0,0,0,0,0,0,0,0,0,0,0,0,0,0,0,0,0,0,0,0,0,0,0,0,0,0,0,0,0,0,0,0,0,0,0,0,0,-0.0206,-0.0206,0,-0.0162,-0.0161,-0.0161,-0.0134,-0.0134,-0.0134,-0.0134,-0.0067,-0.0065,-0.0064,0,0,0,0,0,0,0,0,0,0,0,0,0,-0.0231,-0.0231,-0.0206,-0.0206,-0.0205,-0.0162,-0.0161,-0.016,-0.0134,-0.0134,-0.0134,-0.0133,-0.0067,-0.0065,-0.0063,0,0,0,0,0,0,0,0,0,0,0,0,0,-0.0206,-0.0231,-0.0206,-0.0187,-0.0185,-0.0162,-0.0161,-0.016,-0.0134,-0.0134,-0.0134,-0.0133,-0.0068,-0.0066,-0.0063,-0.0049,0,0,-0.0055,-0.0054,0,0,0,0,0,0,0,0,-0.0208,-0.0205,-0.0191,-0.0189,-0.0186,-0.0154,-0.0145,-0.0122,-0.0134,-0.0153,-0.0134,-0.0133,-0.0094,-0.009,-0.0081,-0.0046,-0.0043,-0.0055,-0.0053,-0.0052,-0.0052,0,0,0,0,0,0,0,-0.0209,-0.0207,-0.0188,-0.019,-0.0187,-0.0168,-0.0165,-0.0141,-0.0124,-0.0151,-0.0149,-0.0145,-0.0093,-0.0083,-0.0079,-0.0042,-0.0055,-0.0053,-0.0051,-0.005,0.0014,0.0015,0,0,0,0,0,0,-0.0218,-0.0209,-0.0189,-0.0187,-0.0198,-0.0168,-0.0164,-0.0164,-0.0124,-0.0119,-0.0145,-0.0144,-0.0088,-0.0082,-0.0077,-0.0056,-0.0052,-0.005,-0.0048,0.0014,0.0015,0.0015,0,0,0,0,0,0,-0.0219,-0.0217,-0.0191,-0.0197,-0.0192,-0.0168,-0.0167,-0.0163,-0.0156,-0.012,-0.0114,-0.0144,-0.0088,-0.008,-0.0056,-0.0053,-0.0049,-0.0046,0.0014,0.0014,0.0015,-0.0016,0,0,0,0,0,0,-0.022,-0.0218,-0.0223,-0.0198,-0.0192,-0.0183,-0.0167,-0.0162,-0.0154,-0.0152,-0.0117,-0.011,-0.0087,-0.006,-0.0053,-0.005,-0.0044,0.0014,0.0014,0.0015,-0.0015,-0.0017,-0.0018,0,0,0,0,0,-0.0221,-0.0229,-0.0224,-0.0222,-0.02,-0.0183,-0.0179,-0.016,-0.0154,-0.0153,-0.0127,-0.0112,-0.0053,-0.0058,-0.005,-0.0046,0.0014,0.0014,0.0015,-0.0014,-0.0016,-0.0018,0,0,0,0,0,0,-0.0242,-0.0226,-0.022,-0.0223,-0.0207,-0.0179,-0.0178,-0.0165,-0.0144,-0.0143,-0.0109,-0.01,-0.0079,-0.0058,-0.0064,-0.0026,-0.0017,-0.0015,-0.0042,-0.0043,-0.0045,-0.0054,-0.0042,0,0,0,0,0,-0.025,-0.0253,-0.0231,-0.0235,-0.0229,-0.0205,-0.0197,-0.0185,-0.0162,-0.0153,-0.0127,-0.0098,-0.0071,-0.0055,-0.003,-0.0009,0.0017,-0.0001,-0.0002,-0.0004,-0.0005,0.0039,0.0042,0.0016,0.0016,0.0016,0,0,-0.0259,-0.0251,-0.0253,-0.0239,-0.0227,-0.0222,-0.02,-0.0193,-0.0185,-0.0149,-0.0132,-0.0105,-0.0067,-0.0043,-0.0031,-0.0025,0.0017,-0.0003,-0.0005,-0.0006,0.004,0.0042,0.0045,0.0016,0.0016,0.0016,0,0,-0.028,-0.0273,-0.0283,-0.0272,-0.0257,-0.0239,-0.024,-0.0214,-0.02,-0.018,-0.0151,-0.0121,-0.0084,-0.0051,-0.0031,-0.0025,0.0005,-0.002,-0.003,0.0013,0.0015,0.0018,0.0051,0.0057,-0.0017,-0.0017,-0.0017,0,-0.0294,-0.0302,-0.0282,-0.0286,-0.0281,-0.025,-0.0256,-0.0234,-0.0203,-0.0188,-0.0181,-0.0116,-0.0085,-0.0045,-0.0043,-0.0028,-0.0004,-0.0028,0.0011,0.0014,0.0017,0.005,0.0057,-0.0019,-0.0019,-0.0018,-0.0018,0,-0.0318,-0.0325,-0.0329,-0.0324,-0.0314,-0.0315,-0.0283,-0.0269,-0.0249,-0.0221,-0.0183,-0.0137,-0.0098,-0.0081,-0.006,-0.0022,-0.0013,0.0,0.0013,0.0018,0.0053,0.006,-0.0021,-0.002,-0.002,-0.002,0,0,-0.0347,-0.0348,-0.0351,-0.036,-0.0337,-0.0334,-0.0316,-0.0289,-0.0279,-0.0236,-0.0213,-0.0157,-0.013,-0.0105,-0.0069,-0.0028,0.0016,-0.0009,-0.0006,0.002,0.0104,0.009,0.0097,0.0034,0.0036,0.0036,0.0118,0,-0.0374,-0.0401,-0.0385,-0.0403,-0.0414,-0.0379,-0.0366,-0.0335,-0.03,-0.0267,-0.0204,-0.0172,-0.0138,-0.0122,-0.0074,-0.0007,0.0034,-0.0008,0.01,0.0103,0.0087,0.0105,0.004,0.0124,0.0126,0.0127,0.0128,0,-0.0402,-0.0418,-0.0449,-0.0452,-0.0452,-0.0454,-0.0431,-0.0414,-0.0351,-0.0321,-0.0267,-0.0217,-0.0147,-0.0125,-0.0003,-0.0033,0.0029,0.0083,0.0087,0.009,0.0103,0.0121,0.0142,0.0141,0.014,0.0139,0.0138,0,-0.0442,-0.046,-0.0491,-0.0492,-0.0487,-0.0492,-0.0485,-0.0437,-0.0422,-0.0356,-0.0335,-0.0242,-0.0197,-0.0103,0.0009,0.0003,0.0142,0.015,0.0198,0.0197,0.0198,0.0195,0.0232,0.0232,0.0232,0.0232,0.0232,0,-0.0475,-0.05,-0.0518,-0.0536,-0.057,-0.0543,-0.0557,-0.0528,-0.0483,-0.0462,-0.0372,-0.0331,-0.019,-0.0092,0.0005,0.0126,0.0143,0.0199,0.0221,0.0183,0.0177,0.0204,0.0199,0.0235,0.0234,0.0234,0.0233,0,-0.0511,-0.0523,-0.0564,-0.0583,-0.0594,-0.0618,-0.062,-0.0619,-0.0568,-0.0537,-0.0519,-0.0391,-0.0259,-0.0117,0.0046,0.0114,0.0232,0.0269,0.0215,0.0232,0.0258,0.0252,0.0328,0.0329,0.0329,0.0329,0.0329,0,-0.053,-0.0557,-0.0611,-0.0645,-0.0661,-0.0691,-0.0708,-0.0672,-0.066,-0.0571,-0.0554,-0.0422,-0.0326,-0.0097,0.0044,0.0232,0.0253,0.0305,0.0285,0.0257,0.027,0.0263,0.0256,0.0329,0.033,0.033,0.033,0,-0.0564,-0.059,-0.0626,-0.0702,-0.0742,-0.0774,-0.079,-0.0787,-0.0728,-0.0687,-0.0569,-0.0436,-0.0282,-0.01,0.0049,0.018,0.0267,0.0308,0.0308,0.0289,0.0259,0.027,0.0263,0.033,0.033,0.033,0.033,0,-0.0589,-0.0628,-0.0684,-0.0743,-0.0802,-0.0834,-0.0838,-0.0805,-0.0778,-0.0667,-0.0631,-0.0447,-0.0332,-0.0126,0.0009,0.014,0.0166,0.0192,0.0199,0.0199,0.0135,0.0076,0.0113,0,0,0,0,0,-0.0604,-0.0649,-0.0717,-0.078,-0.084,-0.0864,-0.0878,-0.0863,-0.0811,-0.0735,-0.0675,-0.0526,-0.0293,-0.0183,-0.0054,-0.0007,0.017,0.0144,0.0197,0.0335,0.0334,0.0278,0,0,0,0,0,0,-0.0615,-0.0682,-0.0717,-0.0795,-0.084,-0.0891,-0.0898,-0.0865,-0.0806,-0.0735,-0.0604,-0.0514,-0.0285,-0.0364,-0.0056,-0.0014,0.0031,0.0263,0.0265,0.0335,0.0334,0.0334,0.0276,0,0,0,0,0]}]]